• en Suisse
  • Liste des pays
  • À 7 jours
  • Température de l'eau
  • Carte satellitaire
  • Carte météo
  • Widgets météo
  • user-avatar
    Se connecter

    Météo par heure à Truro

    Ce jour, 26 Mai, Samedi

    Heure Température Précipitation Vent Pression Humidité
    00:00 +11°C° 0 mm 3 m/s 761 mmHg 97%
    01:00 +11°C° 0,1 mm 3 m/s 761 mmHg 97%
    02:00 +11°C° 0,1 mm 4 m/s 761 mmHg 97%
    03:00 +11°C° 0,1 mm 4 m/s 760 mmHg 98%
    04:00 +11°C° 0 mm 4 m/s 761 mmHg 97%
    05:00 +12°C° 0 mm 5 m/s 761 mmHg 96%
    06:00 +12°C° 0 mm 5 m/s 761 mmHg 95%
    07:00 +14°C° 0 mm 5 m/s 761 mmHg 92%
    08:00 +16°C° 0 mm 5 m/s 761 mmHg 89%
    09:00 +19°C° 0 mm 5 m/s 761 mmHg 86%
    10:00 +19°C° 0 mm 6 m/s 761 mmHg 82%
    11:00 +20°C° 0 mm 6 m/s 761 mmHg 79%
    12:00 +21°C° 0 mm 6 m/s 761 mmHg 76%
    13:00 +21°C° 0,1 mm 6 m/s 760 mmHg 78%
    14:00 +21°C° 0,1 mm 6 m/s 760 mmHg 81%
    15:00 +22°C° 0,1 mm 6 m/s 759 mmHg 84%
    16:00 +22°C° 0,8 mm 6 m/s 759 mmHg 86%
    17:00 +21°C° 0,8 mm 6 m/s 758 mmHg 87%
    18:00 +21°C° 0,8 mm 6 m/s 758 mmHg 88%
    19:00 +20°C° 1,3 mm 6 m/s 757 mmHg 90%
    20:00 +18°C° 1,3 mm 7 m/s 757 mmHg 91%
    21:00 +18°C° 1,3 mm 7 m/s 757 mmHg 93%
    22:00 +17°C° 0,3 mm 7 m/s 756 mmHg 94%
    23:00 +17°C° 0,3 mm 7 m/s 756 mmHg 95%

    Demain, 27 Mai, Dimanche

    Heure Température Précipitation Vent Pression Humidité
    00:00 +16°C° 0,3 mm 8 m/s 756 mmHg 95%
    01:00 +16°C° 0 mm 7 m/s 755 mmHg 96%
    02:00 +16°C° 0 mm 7 m/s 755 mmHg 96%
    03:00 +15°C° 0 mm 7 m/s 755 mmHg 97%
    04:00 +15°C° 0 mm 6 m/s 755 mmHg 97%
    05:00 +15°C° 0 mm 6 m/s 755 mmHg 97%
    06:00 +15°C° 0 mm 6 m/s 755 mmHg 97%
    07:00 +16°C° 0 mm 6 m/s 755 mmHg 94%
    08:00 +17°C° 0 mm 6 m/s 755 mmHg 91%
    09:00 +17°C° 0 mm 6 m/s 756 mmHg 87%
    10:00 +18°C° 0 mm 7 m/s 756 mmHg 85%
    11:00 +18°C° 0 mm 7 m/s 756 mmHg 82%
    12:00 +20°C° 0 mm 7 m/s 756 mmHg 80%
    13:00 +18°C° 0 mm 7 m/s 756 mmHg 83%
    14:00 +18°C° 0 mm 7 m/s 756 mmHg 85%
    15:00 +17°C° 0 mm 6 m/s 756 mmHg 88%
    16:00 +17°C° 0 mm 6 m/s 756 mmHg 90%
    17:00 +16°C° 0 mm 5 m/s 756 mmHg 92%
    18:00 +15°C° 0 mm 5 m/s 757 mmHg 94%
    19:00 +15°C° 0 mm 5 m/s 757 mmHg 95%
    20:00 +15°C° 0 mm 4 m/s 758 mmHg 95%
    21:00 +14°C° 0 mm 4 m/s 758 mmHg 96%
    22:00 +14°C° 0 mm 4 m/s 758 mmHg 97%
    23:00 +13°C° 0 mm 4 m/s 758 mmHg 98%

    Après-demain, 28 Mai, Lundi

    Heure Température Précipitation Vent Pression Humidité
    00:00 +13°C° 0 mm 4 m/s 758 mmHg 98%
    01:00 +13°C° 0 mm 4 m/s 758 mmHg 98%
    02:00 +13°C° 0 mm 3 m/s 759 mmHg 98%
    03:00 +13°C° 0 mm 3 m/s 759 mmHg 98%
    04:00 +14°C° 0 mm 3 m/s 759 mmHg 97%
    05:00 +14°C° 0 mm 3 m/s 759 mmHg 97%
    06:00 +14°C° 0 mm 3 m/s 760 mmHg 96%
    07:00 +16°C° 0 mm 3 m/s 760 mmHg 94%
    08:00 +16°C° 0 mm 2 m/s 760 mmHg 91%
    09:00 +17°C° 0 mm 2 m/s 760 mmHg 88%
    10:00 +18°C° 0 mm 2 m/s 761 mmHg 85%
    11:00 +19°C° 0 mm 2 m/s 761 mmHg 82%
    12:00 +20°C° 0 mm 2 m/s 761 mmHg 78%
    13:00 +20°C° 0 mm 2 m/s 761 mmHg 80%
    14:00 +20°C° 0 mm 2 m/s 761 mmHg 81%
    15:00 +20°C° 0 mm 2 m/s 761 mmHg 83%
    16:00 +20°C° 0 mm 2 m/s 761 mmHg 85%
    17:00 +19°C° 0 mm 2 m/s 761 mmHg 87%
    18:00 +19°C° 0 mm 3 m/s 761 mmHg 89%
    19:00 +18°C° 0 mm 3 m/s 761 mmHg 91%
    20:00 +17°C° 0 mm 4 m/s 762 mmHg 94%
    21:00 +14°C° 0 mm 4 m/s 762 mmHg 96%
    22:00 +14°C° 0 mm 4 m/s 761 mmHg 96%
    23:00 +15°C° 0 mm 5 m/s 761 mmHg 96%

    29 Mai, Mardi

    Heure Température Précipitation Vent Pression Humidité
    00:00 +15°C° 0 mm 5 m/s 761 mmHg 96%
    01:00 +15°C° 0 mm 5 m/s 761 mmHg 97%
    02:00 +15°C° 0 mm 5 m/s 760 mmHg 97%
    03:00 +16°C° 0 mm 5 m/s 760 mmHg 97%
    04:00 +16°C° 0,2 mm 5 m/s 760 mmHg 97%
    05:00 +17°C° 0,2 mm 5 m/s 760 mmHg 97%
    06:00 +17°C° 0,2 mm 5 m/s 759 mmHg 97%
    07:00 +17°C° 0,2 mm 5 m/s 759 mmHg 96%
    08:00 +19°C° 0,2 mm 5 m/s 759 mmHg 95%
    09:00 +19°C° 0,2 mm 5 m/s 759 mmHg 93%
    10:00 +20°C° 0 mm 5 m/s 759 mmHg 90%
    11:00 +21°C° 0 mm 4 m/s 759 mmHg 87%
    12:00 +23°C° 0 mm 4 m/s 759 mmHg 84%
    13:00 +23°C° 0,6 mm 4 m/s 758 mmHg 84%
    14:00 +23°C° 0,6 mm 4 m/s 758 mmHg 83%
    15:00 +25°C° 0,6 mm 4 m/s 758 mmHg 83%
    16:00 +23°C° 0,8 mm 4 m/s 758 mmHg 85%
    17:00 +23°C° 0,8 mm 4 m/s 757 mmHg 86%
    18:00 +22°C° 0,8 mm 3 m/s 757 mmHg 87%
    19:00 +21°C° 0,1 mm 3 m/s 757 mmHg 89%
    20:00 +19°C° 0,1 mm 3 m/s 757 mmHg 92%
    21:00 +18°C° 0,1 mm 3 m/s 757 mmHg 94%
    22:00 +18°C° 0,2 mm 3 m/s 757 mmHg 95%
    23:00 +17°C° 0,2 mm 3 m/s 757 mmHg 95%

    30 Mai, Mercredi

    Heure Température Précipitation Vent Pression Humidité
    00:00 +17°C° 0,2 mm 3 m/s 757 mmHg 96%
    01:00 +17°C° 0,2 mm 4 m/s 756 mmHg 97%
    02:00 +17°C° 0,2 mm 4 m/s 756 mmHg 97%
    03:00 +17°C° 0,2 mm 4 m/s 755 mmHg 98%
    04:00 +18°C° 0 mm 4 m/s 755 mmHg 97%
    05:00 +18°C° 0 mm 4 m/s 755 mmHg 97%
    06:00 +18°C° 0 mm 4 m/s 755 mmHg 96%
    07:00 +17°C° 0,1 mm 5 m/s 755 mmHg 94%
    08:00 +19°C° 0,1 mm 5 m/s 756 mmHg 93%
    09:00 +19°C° 0,1 mm 5 m/s 756 mmHg 91%
    10:00 +19°C° 0,1 mm 5 m/s 756 mmHg 91%
    11:00 +19°C° 0,1 mm 5 m/s 756 mmHg 90%
    12:00 +19°C° 0,1 mm 5 m/s 756 mmHg 89%
    13:00 +19°C° 0,1 mm 5 m/s 756 mmHg 89%
    14:00 +19°C° 0,1 mm 4 m/s 756 mmHg 89%
    15:00 +20°C° 0,1 mm 4 m/s 755 mmHg 89%
    16:00 +19°C° 0 mm 4 m/s 755 mmHg 91%
    17:00 +19°C° 0 mm 4 m/s 755 mmHg 92%
    18:00 +19°C° 0 mm 4 m/s 755 mmHg 93%
    19:00 +18°C° 0 mm 4 m/s 755 mmHg 94%
    20:00 +17°C° 0 mm 3 m/s 755 mmHg 96%
    21:00 +17°C° 0 mm 3 m/s 756 mmHg 97%
    22:00 +17°C° 0 mm 3 m/s 755 mmHg 97%
    23:00 +17°C° 0 mm 2 m/s 755 mmHg 97%

    31 Mai, Jeudi

    Heure Température Précipitation Vent Pression Humidité
    00:00 +17°C° 0 mm 2 m/s 755 mmHg 97%
    01:00 +17°C° 0 mm 2 m/s 755 mmHg 97%
    02:00 +17°C° 0 mm 2 m/s 755 mmHg 98%
    03:00 +16°C° 0 mm 2 m/s 755 mmHg 98%
    04:00 +17°C° 0 mm 2 m/s 755 mmHg 97%
    05:00 +17°C° 0 mm 2 m/s 755 mmHg 97%
    06:00 +17°C° 0 mm 2 m/s 755 mmHg 97%
    07:00 +18°C° 0 mm 3 m/s 755 mmHg 95%
    08:00 +18°C° 0 mm 3 m/s 756 mmHg 94%
    09:00 +19°C° 0 mm 3 m/s 756 mmHg 92%
    10:00 +19°C° 0,1 mm 3 m/s 756 mmHg 92%
    11:00 +19°C° 0,1 mm 3 m/s 756 mmHg 91%
    12:00 +19°C° 0,1 mm 3 m/s 757 mmHg 91%
    13:00 +20°C° 0,1 mm 2 m/s 757 mmHg 91%
    14:00 +20°C° 0,1 mm 2 m/s 757 mmHg 91%
    15:00 +21°C° 0,1 mm 1 m/s 757 mmHg 91%
    16:00 +19°C° 0 mm 2 m/s 757 mmHg 92%
    17:00 +19°C° 0 mm 2 m/s 757 mmHg 93%
    18:00 +18°C° 0 mm 2 m/s 757 mmHg 95%
    19:00 +18°C° 0 mm 2 m/s 758 mmHg 96%
    20:00 +17°C° 0 mm 3 m/s 758 mmHg 97%
    21:00 +17°C° 0 mm 3 m/s 759 mmHg 98%
    22:00 +17°C° 0 mm 3 m/s 759 mmHg 98%
    23:00 +17°C° 0 mm 4 m/s 759 mmHg 98%
    Voir plus